FW1247 Weather Reports


time (UTC)temp
C
wind
direction
speed
KPH
gust
KPH
rain 1hr
cm
rain 24hr
cm
rain mn
cm
humidity
%
barometer
mb
20260901104540 18 216 16.1 27.4 0.15 0.86 0.36 90 1009.4
20260901103139 17 284 16.1 30.6 0.15 0.86 0.36 89 1009.4
20260901101536 18 281 11.3 22.5 0.15 0.86 0.36 89 1009.1
20260901100036 18 288 12.9 25.7 0.13 0.84 0.33 85 1009.2
20260901094534 20 213 14.5 30.6 0.00 0.71 0.23 82 1009.0
20260901093033 18 283 12.9 22.5 0.00 0.71 0.23 84 1008.9
20260901091529 19 228 8.0 25.7 0.00 0.71 0.23 85 1008.8
20260901090028 18 281 14.5 29.0 0.00 0.71 0.23 84 1008.8
20260901084526 18 217 8.0 27.4 0.00 0.76 0.23 88 1008.7
20260901083024 18 276 11.3 20.9 0.00 0.76 0.23 88 1008.6
20260901081520 17 260 9.7 22.5 0.00 0.76 0.23 90 1008.5
20260901080019 17 271 14.5 25.7 0.00 0.76 0.23 92 1008.3
20260901074616 17 260 8.0 19.3 0.03 0.76 0.23 94 1008.2
20260901073014 16 284 11.3 19.3 0.15 0.76 0.23 95 1008.1
20260901071513 17 253 8.0 16.1 0.20 0.76 0.23 95 1008.0
20260901070021 16 298 9.7 19.3 0.20 0.76 0.23 94 1007.9
20260901064509 16 293 9.7 20.9 0.15 0.71 0.18 94 1007.7
20260901063006 17 241 12.9 20.9 0.03 0.58 0.05 93 1007.7
20260901061508 16 281 9.7 17.7 0.00 0.56 0.03 93 1007.5
20260901060001 16 223 6.4 11.3 0.00 0.56 0.03 94 1007.4
20260901054557 16 272 3.2 12.9 0.00 0.56 0.03 94 1007.2
20260901053055 16 288 4.8 14.5 0.00 0.56 0.03 94 1007.1
20260901051549 15 273 3.2 8.0 0.00 0.56 0.03 95 1007.0
20260901050045 15 269 3.2 12.9 0.00 0.56 0.03 94 1006.8
20260901044546 15 275 6.4 14.5 0.00 0.58 0.03 94 1006.7
20260901043042 16 286 8.0 16.1 0.00 0.58 0.03 95 1006.5
20260901041550 16 221 6.4 16.1 0.00 0.58 0.03 95 1006.5
20260901040038 16 244 6.4 16.1 0.00 0.58 0.03 95 1006.4
20260901034539 16 237 4.8 16.1 0.00 0.58 0.03 95 1006.2
20260901033036 16 207 3.2 11.3 0.00 0.58 0.03 95 1006.2
20260901031536 16 230 3.2 9.7 0.00 0.58 0.03 95 1006.1
20260901030034 16 232 3.2 16.1 0.00 0.58 0.03 96 1006.2
20260901024533 16 191 8.0 14.5 0.00 0.58 0.03 95 1006.1
20260901023039 15 214 6.4 12.9 0.00 0.58 0.03 96 1006.1
20260901021534 15 209 4.8 11.3 0.00 0.58 0.03 95 1006.1
20260901020127 15 243 4.8 11.3 0.00 0.58 0.03 95 1006.0
20260901014526 15 227 3.2 9.7 0.00 0.58 0.03 95 1005.9
20260901013023 15 234 4.8 11.3 0.00 0.58 0.03 95 1005.8
20260901011523 15 217 3.2 11.3 0.00 0.58 0.03 95 1005.8
20260901010018 15 217 3.2 11.3 0.00 0.58 0.03 95 1005.6
20260901004515 15 213 3.2 9.7 0.03 0.58 0.03 95 1005.6
20260901003019 15 236 3.2 9.7 0.03 0.58 0.03 95 1005.5
20260901001515 15 199 4.8 9.7 0.03 0.58 0.03 94 1005.5
20260901000013 15 210 6.4 12.9 0.03 0.58 0.03 94 1005.5
20260831234514 15 221 4.8 9.7 0.00 0.56 0.00 94 1005.4
20260831233014 15 195 4.8 11.3 0.00 0.56 0.00 94 1005.5
20260831231519 15 230 4.8 9.7 0.00 0.56 0.00 94 1005.5
20260831230009 15 199 3.2 8.0 0.00 0.56 0.00 93 1005.5
20260831224507 15 174 4.8 12.9 0.00 0.56 0.00 93 1005.4
20260831223005 15 213 6.4 14.5 0.00 0.56 0.00 93 1005.4
20260831221501 15 211 6.4 16.1 0.00 0.56 0.00 93 1005.4
20260831220058 15 213 8.0 12.9 0.00 0.56 0.00 92 1005.4
20260831214610 15 208 4.8 12.9 0.00 0.56 0.56 92 1005.4
20260831213058 15 202 4.8 12.9 0.00 0.56 0.56 92 1005.2
20260831211555 15 180 6.4 12.9 0.00 0.56 0.56 92 1005.0
20260831210054 15 220 6.4 14.5 0.00 0.56 0.56 92 1005.1
20260831204553 15 197 4.8 12.9 0.00 0.56 0.56 92 1005.1
20260831203052 15 209 3.2 12.9 0.00 0.56 0.56 92 1005.0
20260831201552 15 209 3.2 8.0 0.00 0.56 0.56 92 1005.0
20260831200055 15 215 3.2 8.0 0.00 0.56 0.56 92 1005.0
20260831194617 15 179 4.8 12.9 0.00 0.56 0.56 92 1004.9
20260831193050 15 232 1.6 6.4 0.00 0.56 0.56 92 1004.8
20260831191551 15 186 0.0 3.2 0.00 0.56 0.56 92 1004.5
20260831190050 15 186 1.6 4.8 0.00 0.56 0.56 92 1004.2
20260831184548 15 193 1.6 6.4 0.00 0.56 0.56 92 1004.1
20260831183046 15 188 4.8 11.3 0.00 0.56 0.56 92 1004.0
20260831181548 15 178 3.2 9.7 0.00 0.56 0.56 92 1004.1
20260831180046 15 161 8.0 11.3 0.00 0.56 0.56 91 1004.1
20260831174545 16 223 3.2 8.0 0.03 0.56 0.56 91 1003.8
20260831173045 16 164 1.6 8.0 0.03 0.56 0.56 90 1003.7
20260831171546 16 170 6.4 9.7 0.03 0.56 0.56 90 1003.9
20260831170043 16 157 8.0 16.1 0.03 0.56 0.56 91 1004.4
20260831164543 17 155 6.4 16.1 0.00 0.53 0.53 89 1004.4
20260831163042 17 260 6.4 14.5 0.00 0.53 0.53 87 1004.3
20260831161540 17 283 8.0 17.7 0.00 0.53 0.53 88 1004.0
20260831160042 18 281 1.6 6.4 0.00 0.53 0.53 89 1003.5
20260831154541 18 285 4.8 9.7 0.13 0.53 0.53 89 1003.7
20260831153039 18 275 3.2 12.9 0.13 0.53 0.53 91 1004.0
20260831151540 18 265 4.8 9.7 0.46 0.53 0.53 91 1003.7
20260831150040 17 223 4.8 24.1 0.46 0.51 0.51 89 1003.7
20260831144538 17 238 4.8 9.7 0.36 0.43 0.43 89 1003.5
20260831143049 16 202 4.8 27.4 0.36 0.43 0.43 85 1003.3
20260831141535 20 280 14.5 22.5 0.03 0.08 0.08 80 1003.8
20260831140035 21 184 6.4 16.1 0.00 0.05 0.05 77 1003.3
20260831134535 21 186 11.3 24.1 0.00 0.05 0.05 75 1003.1
20260831133032 21 203 17.7 30.6 0.00 0.05 0.05 74 1003.2
20260831131543 22 156 9.7 20.9 0.00 0.05 0.05 74 1003.2
20260831130029 21 161 9.7 20.9 0.00 0.05 0.05 77 1003.2
20260831124529 22 188 17.7 29.0 0.00 0.05 0.05 75 1003.3
20260831123029 22 190 14.5 24.1 0.00 0.05 0.05 75 1003.4
20260831121526 22 154 11.3 24.1 0.00 0.05 0.05 75 1003.5
20260831120027 22 156 9.7 27.4 0.00 0.05 0.05 76 1003.5
20260831114522 22 173 9.7 19.3 0.00 0.05 0.05 77 1003.5
20260831113022 21 149 14.5 29.0 0.00 0.05 0.05 75 1003.6
20260831111520 21 180 14.5 24.1 0.00 0.05 0.05 77 1003.6
20260831110017 21 161 8.0 19.3 0.00 0.05 0.05 79 1003.6